{"data":{"norad_id":60436,"epoch":"2026-05-25T04:16:50.989152Z","epoch_age_seconds":73332,"freshness":"FRESH","line1":"1 60436U 24144M   26145.17836793  .00001401  00000+0  52610-4 0  9999","line2":"2 60436  53.1600 220.8770 0000882 101.8533 258.2569 15.34391507101031","mean_motion":15.34391507,"eccentricity":8.82e-5,"inclination_deg":53.16,"raan_deg":220.877,"arg_perigee_deg":101.8533,"mean_anomaly_deg":258.2569,"bstar":5.261e-5,"rev_number":10103,"period_min":93.848277537423,"perigee_km":462.12511897373,"apogee_km":463.33184764499,"semimajor_km":6840.8654833094,"source":"CELESTRAK","updated_at":"2026-05-25T13:38:19.274922Z"}}